User: anonymous   Login
Location: �chenoz-la-M�line
(47.6009°N, 6.1354°E)
Time: 00:28:32
(UTC+00:00)
Language:

Cosmos 1655 Rocket - Orbit

View from above orbital plane
View from above orbital plane
View from above satellite
View from above satellite

Ground track
Ground track

The orbit data is extracted from the following two-line orbital elements,

1 15752U 85041B   21104.23982496  .00000014  00000-0 -11016-5 0  9999
2 15752  82.9525 356.0054 0023563 202.3458 157.6673 13.73124316797334
Epoch (UTC): 14 April 2021 05:45:20
Eccentricity: 0.0023563
inclination: 82.9525°
perigee height: 971 km
apogee height: 1006 km
right ascension of ascending node: 356.0054°
argument of perigee: 202.3458°
revolutions per day: 13.73124316
mean anomaly at epoch: 157.6673°
orbit number at epoch: 79733

The dashed part of the orbit path shows where the satellite is in the earth's shadow,  

DLR